Weather History for Jackson, MS

Change the Weather History Date:

Saturday, March 19, 2011

  Actual Average Record
Temperature  
Mean Temperature 69 °F 58 °F  
Max Temperature 82 °F 69 °F 88 °F (1982)
Min Temperature 56 °F 46 °F 25 °F (1923)
Degree Days  
Heating Degree Days 0 8  
Month to date heating degree days 168 194  
Since 1 July heating degree days 2159 2186  
Cooling Degree Days 4 1  
Month to date cooling degree days 9 16  
Year to date cooling degree days 30 26  
Growing Degree Days 20 (Base 50)    
Moisture  
Dew Point 58 °F    
Average Humidity 68    
Maximum Humidity 93    
Minimum Humidity 43    
Precipitation  
Precipitation 0.00 in 0.16 in 5.00 in (1906)
Month to date precipitation 5.47 3.05  
Year to date precipitation 11.85 12.78  
Sea Level Pressure  
Sea Level Pressure 30.21 in    
Wind  
Wind Speed 2 mph (South)    
Max Wind Speed 8 mph    
Max Gust Speed 14 mph    
Visibility 10 miles    
Events      
T = Trace of Precipitation, MM = Missing Value Source: NWS Daily Summary

Daily Weather History Graph

Daily Weather History Graph

Search for Another Location

Airport:

Trip Planner

Search our weather history database for the weather conditions in past years. The results will help you decide how hot, cold, wet, or windy it might be!

Date:

Astronomy

Mar. 19, 2011 Rise Set
Actual Time 7:05 AM CDT 7:10 PM CDT
Civil Twilight 6:41 AM CDT 7:35 PM CDT
Nautical Twilight 6:12 AM CDT 8:04 PM CDT
Astronomical Twilight 5:44 AM CDT 8:32 PM CDT
Moon 7:29 PM CDT (3/19) 6:38 AM CDT (3/19)
Length of Visible Light 12h 54m
Length of Day
12h 05m
Full, 100% of the Moon is Illuminated
Mar 19
Full
Mar 19
Full
Mar 26
Last Quarter
Apr 3
New
Apr 11
First Quarter

Hourly Weather History & Observations

Time (CDT) Temp. Heat Index Dew Point Humidity Pressure Visibility Wind Dir Wind Speed Gust Speed Precip Events Conditions
12:54 AM 57.9 °F - 55.0 °F 90% 30.21 in 10.0 mi SSE 3.5 mph - N/A   Clear
1:54 AM 57.9 °F - 55.0 °F 90% 30.21 in 10.0 mi SSE 3.5 mph - N/A   Clear
2:54 AM 62.1 °F - 57.0 °F 84% 30.20 in 10.0 mi Calm Calm - N/A   Mostly Cloudy
3:54 AM 61.0 °F - 57.0 °F 87% 30.19 in 10.0 mi Calm Calm - N/A   Mostly Cloudy
4:54 AM 59.0 °F - 55.9 °F 90% 30.19 in 10.0 mi Calm Calm - N/A   Partly Cloudy
5:54 AM 57.0 °F - 55.0 °F 93% 30.21 in 10.0 mi Calm Calm - N/A   Partly Cloudy
6:54 AM 57.0 °F - 55.9 °F 96% 30.23 in 9.0 mi Calm Calm - N/A   Mostly Cloudy
7:51 AM 59.0 °F - 57.2 °F 94% 30.26 in 8.0 mi Calm Calm - N/A   Overcast
7:54 AM 59.0 °F - 57.9 °F 96% 30.25 in 8.0 mi Calm Calm - N/A   Overcast
8:54 AM 63.0 °F - 61.0 °F 93% 30.28 in 7.0 mi West 3.5 mph - N/A   Overcast
9:47 AM 66.2 °F - 60.8 °F 83% 30.28 in 10.0 mi West 5.8 mph - N/A   Mostly Cloudy
9:54 AM 66.9 °F - 61.0 °F 81% 30.27 in 10.0 mi West 5.8 mph - N/A   Mostly Cloudy
10:04 AM 66.2 °F - 60.8 °F 83% 30.28 in 10.0 mi Variable 3.5 mph - N/A   Scattered Clouds
10:54 AM 71.1 °F - 61.0 °F 70% 30.27 in 10.0 mi Variable 3.5 mph - N/A   Partly Cloudy
11:54 AM 75.0 °F - 62.1 °F 64% 30.26 in 10.0 mi Variable 3.5 mph - N/A   Partly Cloudy
12:54 PM 75.9 °F - 61.0 °F 60% 30.23 in 10.0 mi South 3.5 mph - N/A   Partly Cloudy
1:54 PM 77.0 °F - 60.1 °F 56% 30.20 in 10.0 mi ESE 4.6 mph - N/A   Scattered Clouds
2:54 PM 81.0 °F 81.0 °F 57.0 °F 44% 30.17 in 10.0 mi Calm Calm - N/A   Scattered Clouds
3:54 PM 81.0 °F 81.0 °F 57.0 °F 44% 30.16 in 10.0 mi Calm Calm - N/A   Scattered Clouds
4:54 PM 82.0 °F 81.7 °F 57.0 °F 42% 30.14 in 10.0 mi West 4.6 mph - N/A   Scattered Clouds
5:54 PM 79.0 °F - 57.0 °F 47% 30.15 in 10.0 mi Calm Calm - N/A   Partly Cloudy
6:54 PM 73.9 °F - 59.0 °F 59% 30.16 in 10.0 mi SE 3.5 mph - N/A   Partly Cloudy
7:54 PM 69.8 °F - 57.2 °F 64% 30.17 in 10.0 mi SE 5.8 mph - N/A   Clear
8:54 PM 66.9 °F - 57.9 °F 73% 30.17 in 10.0 mi SE 3.5 mph - N/A   Clear
9:54 PM 64.9 °F - 57.0 °F 75% 30.19 in 10.0 mi Calm Calm - N/A   Clear
10:54 PM 62.1 °F - 57.0 °F 84% 30.21 in 10.0 mi Calm Calm - N/A   Clear
11:54 PM 60.1 °F - 55.9 °F 86% 30.22 in 10.0 mi SE 3.5 mph - 0.00 in   Clear